Regional Weather Roundup
Issued by NWS

Home | Current Version | Previous Version | Text Only | Print | Product List | Glossary Off
Versions: 1 2 3 4 5 6 7 8 9 10 11 12 13 14 15 16 17 18 19 20 21 22 23 24 25 26 27 28 29 30 31 32 33 34 35 36 37 38 39 40 41 42 43 44 45 46 47 48 49 50

000
ASUS43 KLSX 300807
RWRMO

WEATHER SUMMARY FOR MISSOURI
NATIONAL WEATHER SERVICE SPRINGFIELD MO
300 AM CDT THU MAR 30 2017

NOTE: "FAIR" INDICATES FEW OR NO CLOUDS BELOW 12,000 FEET WITH NO
       SIGNIFICANT WEATHER AND/OR OBSTRUCTIONS TO VISIBILITY.
       CURRENT SKY AND/OR WEATHER CONDITIONS ARE NOT AVAILABLE FOR
       CHILLICOTHE AND FARMINGTON.

MOZ001>031-035>038-043-044-053-054-300900-
...NORTHERN AND WESTERN MISSOURI...

CITY           SKY/WX    TMP DP  RH WIND       PRES   REMARKS
KANSAS CTY INT CLOUDY    51  50  96 E13       29.57F
KANSAS C DTWN  CLOUDY    54  53  97 CALM      29.57F
LEE`S SUMMIT   FOG       53  53 100 SE8       29.58F VSB 3/4
ST JOSEPH      CLOUDY    50  49  96 E9        29.59S
CHILLICOTHE      N/A     49  47  93 NE13G24   29.62F
KIRKSVILLE     CLOUDY    48  32  53 NE13      29.66F

$$
MOZ066>068-077>081-088>096-101>105-300900-
...SOUTHWEST MISSOURI...

CITY           SKY/WX    TMP DP  RH WIND       PRES   REMARKS
SPRINGFIELD    PTCLDY    51  49  92 S7        29.63F
JOPLIN         CLOUDY    49  44  83 SW15      29.64F
BRANSON        PTCLDY    57  50  77 SW6       29.65F

$$
MOZ032>034-039>042-045>050-055>058-069>072-300900-
...CENTRAL MISSOURI...

CITY           SKY/WX    TMP DP  RH WIND       PRES   REMARKS
COLUMBIA       LGT RAIN  59  59 100 S3        29.60F FOG
JEFFERSON CITY RAIN      63  59  87 E3        29.60F FOG
ROLLA          CLOUDY    62  61  96 SW10      29.62S
SEDALIA        FOG       56  55  97 SW7       29.60F VSB 1/4
WHITEMAN AFB   FOG       54  54 100 S5        29.58F VSB 1/8
WARRENSBURG    FOG       54  54 100 SE3       29.59F VSB 1/4
OSAGE BEACH    LGT RAIN  60  59  96 S5        29.63S

$$
MOZ051-052-059>065-300900-
...EAST CENTRAL MISSOURI...

CITY           SKY/WX    TMP DP  RH WIND       PRES   REMARKS
ST LOUIS INTL  TSTM      60  56  86 SE6       29.66F
SPIRIT OF STL  TSTM      60  59  96 E6        29.63F
ST CHARLES     HVY RAIN  58  57  97 E17G29    29.64F FOG

$$
MOZ072>076-082>087-097>100-106>115-300900-
...SOUTH CENTRAL AND SOUTHEAST MISSOURI...

CITY           SKY/WX    TMP DP  RH WIND       PRES   REMARKS
CAPE GIRARDEAU CLOUDY    68  59  73 S13G24    29.69F
FARMINGTON     LGT RAIN  61  58  90 SE12      29.66F
POPLAR BLUFF   CLOUDY    69  58  67 S10       29.66F
WEST PLAINS    MOCLDY    61  58  90 S6        29.65F

$$




USA.gov is the U.S. government's official web portal to all federal, state and local government web resources and services.